This is the latest recevied weather packets stored in our database for station/object W5ITZ. If no packets are shown the sender has not sent any weather packets the latest 10 day(s).
| Time | Temp. | Humidity | Pressure | Rain* | Wind** | Luminosity | Snow |
|---|---|---|---|---|---|---|---|
| 1777743444 | 21.67° C | 54% | 1021.1 hPa | 0 mm | - | 1007 W/m² | - |
| 1777743141 | 21.67° C | 55% | 1021.2 hPa | 0 mm | - | 906 W/m² | - |
| 1777742840 | 21.11° C | 56% | 1021.1 hPa | 0 mm | - | 1022 W/m² | - |
| 1777742535 | 21.11° C | 55% | 1021.1 hPa | 0 mm | - | 1056 W/m² | - |
| 1777742231 | 21.67° C | 56% | 1021.4 hPa | 0 mm | - | 1004 W/m² | - |
| 1777741928 | 21.67° C | 59% | 1021.3 hPa | 0 mm | - | 976 W/m² | - |
| 1777741625 | 21.11° C | 56% | 1021.3 hPa | 0 mm | - | 964 W/m² | - |
| 1777741322 | 20.56° C | 62% | 1021.4 hPa | 0 mm | - | 951 W/m² | - |
| 1777741018 | 20.56° C | 61% | 1021.5 hPa | 0 mm | - | 942 W/m² | - |
| 1777740715 | 20.56° C | 61% | 1021.4 hPa | 0 mm | - | 933 W/m² | - |
| 1777740411 | 20° C | 61% | 1021.4 hPa | 0 mm | - | 928 W/m² | - |
| 1777740109 | 20° C | 63% | 1021.4 hPa | 0 mm | - | 816 W/m² | - |
| 1777739804 | 20° C | 63% | 1021.4 hPa | 0 mm | - | 907 W/m² | - |
| 1777739502 | 20° C | 63% | 1021.3 hPa | 0 mm | - | 884 W/m² | - |
| 1777739198 | 19.44° C | 66% | 1021.3 hPa | 0 mm | - | 886 W/m² | - |
| 1777738895 | 20° C | 65% | 1021.2 hPa | 0 mm | - | 889 W/m² | - |
| 1777738593 | 19.44° C | 68% | 1021.6 hPa | 0 mm | - | 472 W/m² | - |
| 1777738289 | 19.44° C | 65% | 1021.2 hPa | 0 mm | - | 857 W/m² | - |
| 1777737987 | 18.89° C | 67% | 1021.5 hPa | 0 mm | - | 831 W/m² | - |
| 1777737686 | 18.89° C | 66% | 1021.3 hPa | 0 mm | - | 831 W/m² | - |
| 1777737384 | 19.44° C | 67% | 1021.2 hPa | 0 mm | - | 835 W/m² | - |
| 1777737080 | 18.89° C | 69% | 1021.3 hPa | 0 mm | - | 887 W/m² | - |
| 1777736776 | 18.89° C | 68% | 1021.3 hPa | 0 mm | - | 845 W/m² | - |
| 1777736148 | 17.22° C | 73% | 1021.1 hPa | 0 mm | - | 797 W/m² | - |
| 1777735845 | 17.22° C | 72% | 1021 hPa | 0 mm | - | 355 W/m² | - |
* Rain latest hour (hover to see other rain measurements)
** Current wind speed in m/s (hover to see current wind gust speed)